Погода в Ягодном

Россия / Самарская область     53°36′39″N   49°02′21″E
темп.,
°C
ветер,
м/с
пор.,
м/с
влажн.,
%
обл.,
%
осадки,
мм/ч
давл.,
гПа
погр.,
м
9 мая, вс
вс901:00+13ю3566100 0.0 101366
04:00+12ю337597 0.0 101331
07:00+13ююв487192 0.0 1012187
10:00+17ю51063100 0.0 1013452
13:00+19ююв61056100 0.0 10121036
16:00+20ю5854100 0.0 1012941
19:00+18юв4106197 0.0 1012266
22:00+16ююв376599 0.0 1013131
10 мая, пн
пн1001:00+14ююв3664100 0.0 1013106
04:00+14юв3364100 0.0 101435
07:00+15вюв2967100 0.0 1015278
10:00+19юв61050100 0.0 1016477
13:00+22вюв6740100 0.0 10171295
16:00+22в5739100 0.0 10171450
19:00+19всв51057100 0.0 1018188
22:00+16всв5106260 0.0 1020164
11 мая, вт
вт1101:00+14всв366983 0.0 102095
04:00+13всв3568100 0.0 102277
07:00+14в31071100 0.0 1023265
10:00+18вюв5857100 0.0 1024500
13:00+21в5743100 0.0 10251059
16:00+22в68445 0.0 10241251
19:00+19всв510587 0.0 1025220
22:00+16в4106074 0.0 1026166
12 мая, ср
ср1201:00+15зсз2382100 0.0 102779
04:00+14ссв237148 0.0 102668
07:00+15в377290 0.0 1027183
10:00+19юв575197 0.0 1028695
13:00+21вюв573976 0.0 10271634
16:00+21юв5739100 0.0 10271558
19:00+19ю2356100 0.0 102766
22:00+16юв2258100 0.0 102716
13 мая, чт
чт1301:00+15в3360100 0.0 102739
04:00+14вюв3761100 0.0 1027146
07:00+14вюв396454 0.0 1027217
10:00+19вюв684844 0.0 1027518
13:00+23юв683814 0.0 10271143
16:00+24юв573682 0.0 10261383
19:00+21юв365136 0.0 1026142
22:00+17юв3353100 0.0 102621